TimeCST,TemperatureF,Dew PointF,Humidity,Sea Level PressureIn,VisibilityMPH,Wind Direction,Wind SpeedMPH,Gust SpeedMPH,PrecipitationIn,Events,Conditions,WindDirDegrees,DateUTC
12:53 AM,30.0,21.9,72,30.19,10.0,West,8.1,-,N/A,,Clear,280,2013-01-06 06:53:00
1:53 AM,28.9,21.9,75,30.22,10.0,NW,9.2,-,N/A,,Clear,310,2013-01-06 07:53:00
2:16 AM,28.4,21.2,74,30.20,10.0,NW,9.2,-,N/A,,Mostly Cloudy,320,2013-01-06 08:16:00
2:46 AM,28.4,19.4,69,30.20,10.0,NNW,11.5,-,N/A,,Scattered Clouds,330,2013-01-06 08:46:00
2:53 AM,28.0,19.0,69,30.23,10.0,NW,11.5,-,N/A,,Partly Cloudy,310,2013-01-06 08:53:00
3:53 AM,26.1,19.0,75,30.25,10.0,WNW,8.1,-,N/A,,Clear,290,2013-01-06 09:53:00
4:53 AM,25.0,18.0,75,30.27,10.0,NW,12.7,-,N/A,,Clear,310,2013-01-06 10:53:00
5:22 AM,24.8,17.6,74,30.25,10.0,NW,9.2,-,N/A,,Mostly Cloudy,310,2013-01-06 11:22:00
5:53 AM,23.0,16.0,74,30.31,10.0,NW,13.8,-,N/A,,Overcast,310,2013-01-06 11:53:00
6:24 AM,21.2,15.8,80,30.30,10.0,NW,12.7,-,N/A,,Overcast,310,2013-01-06 12:24:00
6:53 AM,21.9,16.0,78,30.34,10.0,NW,10.4,-,N/A,,Overcast,310,2013-01-06 12:53:00
7:53 AM,21.9,16.0,78,30.35,7.0,WNW,6.9,-,N/A,,Mostly Cloudy,300,2013-01-06 13:53:00
8:08 AM,21.2,15.8,80,30.32,7.0,WNW,6.9,-,N/A,,Scattered Clouds,290,2013-01-06 14:08:00
8:53 AM,24.1,17.1,75,30.38,8.0,West,6.9,-,N/A,,Clear,280,2013-01-06 14:53:00
9:53 AM,26.1,18.0,71,30.40,9.0,West,8.1,-,N/A,,Clear,280,2013-01-06 15:53:00
10:53 AM,28.9,19.0,67,30.41,10.0,WSW,4.6,-,N/A,,Clear,250,2013-01-06 16:53:00
11:53 AM,32.0,19.0,59,30.39,10.0,WNW,8.1,-,N/A,,Clear,290,2013-01-06 17:53:00
12:53 PM,35.1,19.0,52,30.37,10.0,West,8.1,-,N/A,,Clear,260,2013-01-06 18:53:00
1:53 PM,37.0,17.1,44,30.36,10.0,WNW,5.8,-,N/A,,Clear,290,2013-01-06 19:53:00
3:53 PM,39.0,17.1,41,30.35,10.0,WSW,3.5,-,N/A,,Clear,240,2013-01-06 21:53:00
4:53 PM,37.0,16.0,42,30.35,10.0,WSW,3.5,-,N/A,,Clear,240,2013-01-06 22:53:00
5:53 PM,36.0,16.0,44,30.36,10.0,South,3.5,-,N/A,,Clear,180,2013-01-06 23:53:00
6:53 PM,34.0,19.0,54,30.37,10.0,South,4.6,-,N/A,,Clear,180,2013-01-07 00:53:00
7:53 PM,33.1,19.0,56,30.36,10.0,South,4.6,-,N/A,,Clear,190,2013-01-07 01:53:00
8:53 PM,32.0,19.0,59,30.35,10.0,South,6.9,-,N/A,,Clear,180,2013-01-07 02:53:00
9:53 PM,32.0,19.0,59,30.34,10.0,South,6.9,-,N/A,,Clear,180,2013-01-07 03:53:00
10:53 PM,30.9,19.9,64,30.33,10.0,South,9.2,-,N/A,,Clear,180,2013-01-07 04:53:00
11:53 PM,30.0,19.9,66,30.32,10.0,South,9.2,-,N/A,,Clear,190,2013-01-07 05:53:00